Weather History for Lowell, ID

Change the Weather History Date:

Sunday, December 30, 2012

  Actual Average Record
Temperature  
Mean Temperature 32 °F -  
Max Temperature 34 °F 35 °F 43 °F (2006)
Min Temperature 30 °F 26 °F 21 °F (2003)
Degree Days  
Heating Degree Days 33    
Moisture  
Dew Point 27 °F    
Average Humidity 84    
Maximum Humidity 89    
Minimum Humidity 73    
Precipitation  
Precipitation 0.00 in - - ()
Sea Level Pressure  
Sea Level Pressure 30.34 in    
Wind  
Wind Speed 0 mph (SSE)    
Max Wind Speed 5 mph    
Max Gust Speed -    
Averages and records for this station are not official NWS values.
T = Trace of Precipitation, MM = Missing Value Source: NWS Daily Summary

Daily Weather History Graph

Daily Weather History Graph

Search for Another Location

Airport:

Trip Planner

Search our weather history database for the weather conditions in past years. The results will help you decide how hot, cold, wet, or windy it might be!

Date:

Astronomy

Dec. 30, 2012 Rise Set
Actual Time 8:24 AM MST 5:05 PM MST
Civil Twilight 7:50 AM MST 5:40 PM MST
Nautical Twilight 7:12 AM MST 6:18 PM MST
Astronomical Twilight 6:35 AM MST 6:54 PM MST
Moon 7:50 PM MST (12/30) 9:28 AM MST (12/30)
Length of Visible Light 9h 50m
Length of Day
8h 41m
Waning Gibbous, 95% of the Moon is Illuminated
Dec 30
Waning Gibbous
Jan 4
Last Quarter
Jan 11
New
Jan 18
First Quarter
Jan 26
Full

Hourly Weather History & Observations

Time (MST) Temp. Windchill Dew Point Humidity Pressure Visibility Wind Dir Wind Speed Gust Speed Precip Events Conditions
12:52 AM 30.0 °F - 27.0 °F 88% 30.24 in - Calm Calm - N/A   Unknown
1:52 AM 30.0 °F - 27.0 °F 88% 30.25 in - Calm Calm - N/A   Unknown
2:52 AM 30.0 °F - 27.0 °F 88% 30.28 in - Calm Calm - N/A   Unknown
3:52 AM 30.0 °F - 27.0 °F 88% 30.30 in - Calm Calm - N/A   Unknown
4:52 AM 30.9 °F - 27.0 °F 85% 30.30 in - Calm Calm - N/A   Unknown
5:52 AM 30.0 °F - 27.0 °F 88% 30.32 in - Calm Calm - N/A   Unknown
6:52 AM 30.0 °F - 26.1 °F 85% 30.32 in - Calm Calm - N/A   Unknown
7:52 AM 30.0 °F - 26.1 °F 85% 30.32 in - Calm Calm - N/A   Unknown
8:52 AM 30.0 °F - 27.0 °F 88% 30.34 in - Calm Calm - N/A   Unknown
9:52 AM 30.9 °F - 26.1 °F 82% 30.36 in - Calm Calm - N/A   Unknown
10:52 AM 30.9 °F - 27.0 °F 85% 30.37 in - Calm Calm - N/A   Unknown
11:52 AM 33.1 °F - 26.1 °F 75% 30.36 in - Calm Calm - N/A   Unknown
12:52 PM 33.1 °F 28.7 °F 27.0 °F 78% 30.35 in - Variable 4.6 mph - N/A   Unknown
1:52 PM 34.0 °F 29.8 °F 26.1 °F 73% 30.34 in - Variable 4.6 mph - N/A   Unknown
2:52 PM 34.0 °F 31.0 °F 26.1 °F 73% 30.35 in - Variable 3.5 mph - N/A   Unknown
3:52 PM 33.1 °F 28.7 °F 27.0 °F 78% 30.36 in - SSE 4.6 mph - N/A   Unknown
4:52 PM 33.1 °F - 27.0 °F 78% 30.36 in - Calm Calm - N/A   Unknown
5:52 PM 32.0 °F - 28.0 °F 85% 30.38 in - Calm Calm - N/A   Unknown
6:52 PM 32.0 °F - 28.0 °F 85% 30.37 in - Calm Calm - N/A   Unknown
7:52 PM 30.9 °F - 28.0 °F 89% 30.38 in - Calm Calm - N/A   Unknown
8:52 PM 30.9 °F - 28.0 °F 89% 30.38 in - Calm Calm - N/A   Unknown
9:52 PM 30.9 °F - 28.0 °F 89% 30.39 in - Calm Calm - N/A   Unknown
10:52 PM 30.9 °F - 27.0 °F 85% 30.38 in - Calm Calm - N/A   Unknown
11:52 PM 30.9 °F - 27.0 °F 85% 30.38 in - Calm Calm - N/A   Unknown